| time (UTC) | temp F | wind direction | speed knots | gust knots | rain 1hr in | rain 24hr in | rain mn in | humidity % | barometer mb |
| 20260506181549 | 67 | 31 | 2.6 | 7.0 | 0.00 | 0.00 | 0.00 | 63 | 1019.0 |
| 20260506181023 | 67 | 259 | 1.7 | 4.3 | 0.00 | 0.00 | 0.00 | 62 | 1019.1 |
| 20260506180519 | 64 | 217 | 1.7 | 4.3 | 0.00 | 0.00 | 0.00 | 67 | 1019.2 |
| 20260506180044 | 65 | 232 | 1.7 | 4.3 | 0.00 | 0.00 | 0.00 | 66 | 1019.2 |
| 20260506175519 | 66 | 51 | 0.9 | 5.2 | 0.00 | 0.00 | 0.00 | 65 | 1019.3 |
| 20260506175019 | 64 | 78 | 0.9 | 5.2 | 0.00 | 0.00 | 0.00 | 69 | 1019.3 |
| 20260506174541 | 64 | 98 | 2.6 | 5.2 | 0.00 | 0.00 | 0.00 | 68 | 1019.3 |
| 20260506174022 | 65 | 0 | 0.9 | 5.2 | 0.00 | 0.00 | 0.00 | 67 | 1019.3 |
| 20260506173519 | 64 | 333 | 0.9 | 5.2 | 0.00 | 0.00 | 0.00 | 70 | 1019.4 |
| 20260506173051 | 63 | 324 | 0.9 | 7.8 | 0.00 | 0.00 | 0.00 | 71 | 1019.4 |
| 20260506172519 | 62 | 42 | 1.7 | 7.8 | 0.00 | 0.00 | 0.00 | 70 | 1019.5 |
| 20260506172018 | 62 | 117 | 0.9 | 4.3 | 0.00 | 0.00 | 0.00 | 71 | 1019.5 |
| 20260506171537 | 61 | 142 | 1.7 | 5.2 | 0.00 | 0.00 | 0.00 | 74 | 1019.5 |
| 20260506171023 | 61 | 147 | 1.7 | 5.2 | 0.00 | 0.00 | 0.00 | 72 | 1019.5 |
| 20260506170520 | 61 | 105 | 1.7 | 6.1 | 0.00 | 0.00 | 0.00 | 73 | 1019.5 |
| 20260506170053 | 60 | 67 | 1.7 | 6.1 | 0.00 | 0.00 | 0.00 | 74 | 1019.5 |
| 20260506165524 | 60 | 0 | 1.7 | 5.2 | 0.00 | 0.00 | 0.00 | 76 | 1019.6 |
| 20260506165021 | 60 | 92 | 1.7 | 5.2 | 0.00 | 0.00 | 0.00 | 74 | 1019.6 |
| 20260506164555 | 59 | 74 | 1.7 | 5.2 | 0.00 | 0.00 | 0.00 | 76 | 1019.7 |
| 20260506164020 | 59 | 65 | 0.9 | 6.1 | 0.00 | 0.00 | 0.00 | 76 | 1019.7 |
| 20260506163522 | 58 | 190 | 1.7 | 6.1 | 0.00 | 0.00 | 0.00 | 77 | 1019.7 |
| 20260506163051 | 58 | 292 | 0.9 | 5.2 | 0.00 | 0.00 | 0.00 | 77 | 1019.7 |
| 20260506162519 | 58 | 181 | 0.9 | 5.2 | 0.00 | 0.00 | 0.00 | 80 | 1019.8 |
| 20260506162024 | 58 | 102 | 1.7 | 5.2 | 0.00 | 0.00 | 0.00 | 78 | 1019.8 |
| 20260506161536 | 58 | 0 | 0.0 | 3.5 | 0.00 | 0.00 | 0.00 | 81 | 1019.8 |
| 20260506161021 | 56 | 0 | 0.0 | 3.5 | 0.00 | 0.00 | 0.00 | 83 | 1019.7 |
| 20260506160519 | 56 | 0 | 0.0 | 3.5 | 0.00 | 0.00 | 0.00 | 83 | 1019.8 |
| 20260506160037 | 55 | 61 | 0.9 | 3.5 | 0.00 | 0.00 | 0.00 | 84 | 1019.8 |
| 20260506155517 | 54 | 121 | 0.9 | 5.2 | 0.00 | 0.00 | 0.00 | 85 | 1019.9 |
| 20260506155018 | 54 | 143 | 0.9 | 5.2 | 0.00 | 0.00 | 0.00 | 87 | 1020.0 |
| 20260506154539 | 53 | 82 | 0.0 | 5.2 | 0.00 | 0.00 | 0.00 | 89 | 1020.0 |
| 20260506154019 | 53 | 109 | 1.7 | 5.2 | 0.00 | 0.00 | 0.00 | 90 | 1020.0 |
| 20260506153518 | 52 | 0 | 0.0 | 3.5 | 0.00 | 0.00 | 0.00 | 92 | 1020.0 |
| 20260506153040 | 51 | 38 | 0.9 | 3.5 | 0.00 | 0.00 | 0.00 | 93 | 1020.0 |
| 20260506152519 | 51 | 0 | 0.0 | 1.7 | 0.00 | 0.00 | 0.00 | 94 | 1020.0 |
| 20260506152019 | 50 | 0 | 0.0 | 2.6 | 0.00 | 0.00 | 0.00 | 94 | 1020.0 |
| 20260506151540 | 49 | 118 | 0.0 | 2.6 | 0.00 | 0.00 | 0.00 | 95 | 1020.1 |
| 20260506151019 | 49 | 82 | 0.0 | 2.6 | 0.00 | 0.00 | 0.00 | 95 | 1020.1 |
| 20260506150519 | 48 | 0 | 0.0 | 0.9 | 0.00 | 0.00 | 0.00 | 96 | 1020.1 |
| 20260506150045 | 48 | 0 | 0.0 | 0.9 | 0.00 | 0.00 | 0.00 | 96 | 1020.1 |
| 20260506145519 | 47 | 0 | 0.0 | 2.6 | 0.00 | 0.00 | 0.00 | 96 | 1020.2 |
| 20260506145018 | 47 | 0 | 0.0 | 2.6 | 0.00 | 0.00 | 0.00 | 96 | 1020.2 |
| 20260506144534 | 47 | 14 | 0.0 | 2.6 | 0.00 | 0.00 | 0.00 | 96 | 1020.2 |
| 20260506144021 | 46 | 0 | 0.0 | 0.0 | 0.00 | 0.00 | 0.00 | 96 | 1020.1 |
| 20260506143521 | 45 | 0 | 0.0 | 0.0 | 0.00 | 0.00 | 0.00 | 96 | 1020.1 |
| 20260506143038 | 45 | 0 | 0.0 | 0.0 | 0.00 | 0.00 | 0.00 | 96 | 1020.0 |
| 20260506142518 | 44 | 0 | 0.0 | 0.9 | 0.00 | 0.00 | 0.00 | 96 | 1019.9 |
| 20260506142020 | 44 | 0 | 0.0 | 0.9 | 0.00 | 0.00 | 0.00 | 95 | 1019.9 |
| 20260506141544 | 43 | 0 | 0.0 | 0.0 | 0.00 | 0.00 | 0.00 | 95 | 1019.8 |
| 20260506141023 | 43 | 0 | 0.0 | 0.0 | 0.00 | 0.00 | 0.00 | 96 | 1019.8 |
| 20260506140520 | 42 | 0 | 0.0 | 0.0 | 0.00 | 0.00 | 0.00 | 96 | 1019.8 |
| 20260506140044 | 42 | 0 | 0.0 | 0.0 | 0.00 | 0.00 | 0.00 | 94 | 1019.8 |
| 20260506135520 | 42 | 0 | 0.0 | 0.0 | 0.00 | 0.00 | 0.00 | 95 | 1019.8 |
| 20260506135018 | 43 | 0 | 0.0 | 0.0 | 0.00 | 0.00 | 0.00 | 95 | 1019.7 |
| 20260506134538 | 43 | 0 | 0.0 | 0.0 | 0.00 | 0.00 | 0.00 | 95 | 1019.7 |
| 20260506134020 | 43 | 0 | 0.0 | 0.0 | 0.00 | 0.00 | 0.00 | 95 | 1019.6 |
| 20260506133518 | 42 | 0 | 0.0 | 0.9 | 0.00 | 0.00 | 0.00 | 95 | 1019.6 |
| 20260506133042 | 42 | 0 | 0.0 | 0.9 | 0.00 | 0.00 | 0.00 | 95 | 1019.5 |
| 20260506132521 | 42 | 0 | 0.0 | 0.9 | 0.00 | 0.00 | 0.00 | 95 | 1019.5 |
| 20260506132017 | 42 | 0 | 0.0 | 0.0 | 0.00 | 0.00 | 0.00 | 95 | 1019.4 |
| 20260506131617 | 42 | 0 | 0.0 | 0.0 | 0.00 | 0.00 | 0.00 | 94 | 1019.3 |
| 20260506131021 | 42 | 0 | 0.0 | 0.0 | 0.00 | 0.00 | 0.00 | 95 | 1019.3 |
| 20260506130526 | 42 | 0 | 0.0 | 0.0 | 0.00 | 0.00 | 0.00 | 95 | 1019.3 |
| 20260506130044 | 42 | 0 | 0.0 | 0.0 | 0.00 | 0.00 | 0.00 | 95 | 1019.3 |
| 20260506125518 | 42 | 0 | 0.0 | 0.0 | 0.00 | 0.00 | 0.00 | 95 | 1019.3 |
| 20260506125020 | 42 | 0 | 0.0 | 0.0 | 0.00 | 0.00 | 0.00 | 95 | 1019.2 |
| 20260506124543 | 41 | 0 | 0.0 | 0.0 | 0.00 | 0.00 | 0.00 | 95 | 1019.2 |
| 20260506124020 | 42 | 0 | 0.0 | 0.0 | 0.00 | 0.00 | 0.00 | 95 | 1019.2 |
| 20260506123520 | 42 | 0 | 0.0 | 0.0 | 0.00 | 0.00 | 0.00 | 94 | 1019.2 |
| 20260506123041 | 42 | 0 | 0.0 | 0.0 | 0.00 | 0.00 | 0.00 | 95 | 1019.1 |
| 20260506122518 | 42 | 0 | 0.0 | 0.0 | 0.00 | 0.00 | 0.00 | 95 | 1019.0 |
| 20260506122018 | 42 | 0 | 0.0 | 0.0 | 0.00 | 0.00 | 0.00 | 95 | 1019.0 |
| 20260506121536 | 41 | 0 | 0.0 | 0.0 | 0.00 | 0.00 | 0.00 | 95 | 1019.0 |
| 20260506121021 | 41 | 0 | 0.0 | 0.0 | 0.00 | 0.00 | 0.00 | 94 | 1018.8 |
| 20260506120519 | 41 | 0 | 0.0 | 0.0 | 0.00 | 0.00 | 0.00 | 95 | 1018.8 |
| 20260506120052 | 41 | 0 | 0.0 | 0.0 | 0.00 | 0.00 | 0.00 | 94 | 1018.7 |
| 20260506115520 | 42 | 0 | 0.0 | 0.0 | 0.00 | 0.00 | 0.00 | 94 | 1018.7 |
| 20260506115017 | 42 | 0 | 0.0 | 0.0 | 0.00 | 0.00 | 0.00 | 94 | 1018.6 |
| 20260506114541 | 42 | 0 | 0.0 | 0.0 | 0.00 | 0.00 | 0.00 | 94 | 1018.5 |
| 20260506114019 | 43 | 0 | 0.0 | 0.0 | 0.00 | 0.00 | 0.00 | 94 | 1018.5 |
| 20260506113518 | 43 | 0 | 0.0 | 0.0 | 0.00 | 0.00 | 0.00 | 94 | 1018.6 |
| 20260506113041 | 42 | 0 | 0.0 | 0.0 | 0.00 | 0.00 | 0.00 | 94 | 1018.6 |
| 20260506112520 | 43 | 0 | 0.0 | 0.0 | 0.00 | 0.00 | 0.00 | 94 | 1018.6 |
| 20260506112019 | 43 | 0 | 0.0 | 0.0 | 0.00 | 0.00 | 0.00 | 94 | 1018.7 |
| 20260506111545 | 44 | 0 | 0.0 | 0.0 | 0.00 | 0.00 | 0.00 | 94 | 1018.6 |
| 20260506111019 | 44 | 0 | 0.0 | 0.0 | 0.00 | 0.00 | 0.00 | 94 | 1018.7 |
| 20260506110519 | 44 | 0 | 0.0 | 0.0 | 0.00 | 0.00 | 0.00 | 94 | 1018.6 |
| 20260506110035 | 44 | 0 | 0.0 | 0.0 | 0.00 | 0.00 | 0.00 | 95 | 1018.6 |
| 20260506105522 | 43 | 0 | 0.0 | 0.0 | 0.00 | 0.00 | 0.00 | 94 | 1018.7 |
| 20260506105017 | 43 | 0 | 0.0 | 0.0 | 0.00 | 0.00 | 0.00 | 94 | 1018.6 |
| 20260506104545 | 43 | 0 | 0.0 | 0.0 | 0.00 | 0.00 | 0.00 | 94 | 1018.6 |
| 20260506104024 | 43 | 0 | 0.0 | 0.0 | 0.00 | 0.00 | 0.00 | 94 | 1018.6 |
| 20260506103522 | 44 | 0 | 0.0 | 0.0 | 0.00 | 0.00 | 0.00 | 94 | 1018.5 |
| 20260506103046 | 44 | 0 | 0.0 | 0.0 | 0.00 | 0.00 | 0.00 | 94 | 1018.5 |
| 20260506102522 | 44 | 0 | 0.0 | 0.0 | 0.00 | 0.00 | 0.00 | 94 | 1018.6 |
| 20260506102021 | 44 | 0 | 0.0 | 0.0 | 0.00 | 0.00 | 0.00 | 94 | 1018.6 |
| 20260506101541 | 44 | 0 | 0.0 | 0.0 | 0.00 | 0.00 | 0.00 | 93 | 1018.6 |
| 20260506101018 | 45 | 0 | 0.0 | 0.0 | 0.00 | 0.00 | 0.00 | 94 | 1018.6 |
| 20260506100520 | 44 | 0 | 0.0 | 0.0 | 0.00 | 0.00 | 0.00 | 94 | 1018.6 |
| 20260506100049 | 44 | 0 | 0.0 | 0.0 | 0.00 | 0.00 | 0.00 | 94 | 1018.6 |
| 20260506095519 | 44 | 0 | 0.0 | 0.0 | 0.00 | 0.00 | 0.00 | 94 | 1018.6 |
| 20260506095020 | 44 | 0 | 0.0 | 0.0 | 0.00 | 0.00 | 0.00 | 94 | 1018.6 |
| 20260506094540 | 44 | 0 | 0.0 | 0.0 | 0.00 | 0.00 | 0.00 | 94 | 1018.6 |
| 20260506094018 | 44 | 0 | 0.0 | 0.0 | 0.00 | 0.00 | 0.00 | 94 | 1018.6 |
| 20260506093521 | 44 | 0 | 0.0 | 0.0 | 0.00 | 0.00 | 0.00 | 93 | 1018.6 |
| 20260506093036 | 45 | 0 | 0.0 | 0.0 | 0.00 | 0.00 | 0.00 | 94 | 1018.5 |
| 20260506092521 | 45 | 0 | 0.0 | 0.0 | 0.00 | 0.00 | 0.00 | 94 | 1018.5 |
| 20260506092019 | 45 | 0 | 0.0 | 0.0 | 0.00 | 0.00 | 0.00 | 94 | 1018.4 |
| 20260506091541 | 44 | 0 | 0.0 | 0.0 | 0.00 | 0.00 | 0.00 | 93 | 1018.4 |
| 20260506091021 | 45 | 0 | 0.0 | 0.0 | 0.00 | 0.00 | 0.00 | 93 | 1018.4 |
| 20260506090520 | 45 | 0 | 0.0 | 0.0 | 0.00 | 0.00 | 0.00 | 94 | 1018.4 |
| 20260506090042 | 45 | 0 | 0.0 | 0.0 | 0.00 | 0.00 | 0.00 | 93 | 1018.5 |
| 20260506085520 | 45 | 0 | 0.0 | 0.0 | 0.00 | 0.00 | 0.00 | 93 | 1018.5 |
| 20260506085020 | 45 | 0 | 0.0 | 0.0 | 0.00 | 0.00 | 0.00 | 93 | 1018.5 |
| 20260506084612 | 45 | 0 | 0.0 | 0.0 | 0.00 | 0.00 | 0.00 | 93 | 1018.4 |
| 20260506084020 | 45 | 0 | 0.0 | 0.0 | 0.00 | 0.00 | 0.00 | 93 | 1018.4 |
| 20260506083519 | 46 | 0 | 0.0 | 0.0 | 0.00 | 0.00 | 0.00 | 93 | 1018.4 |
| 20260506083041 | 46 | 0 | 0.0 | 0.0 | 0.00 | 0.00 | 0.00 | 93 | 1018.4 |
| 20260506082519 | 46 | 0 | 0.0 | 0.9 | 0.00 | 0.00 | 0.00 | 93 | 1018.4 |
| 20260506082019 | 46 | 0 | 0.0 | 0.9 | 0.00 | 0.00 | 0.00 | 93 | 1018.5 |
| 20260506081549 | 46 | 0 | 0.0 | 0.9 | 0.00 | 0.00 | 0.00 | 93 | 1018.5 |
| 20260506081018 | 46 | 0 | 0.0 | 0.9 | 0.00 | 0.00 | 0.00 | 93 | 1018.4 |
| 20260506080518 | 46 | 0 | 0.0 | 1.7 | 0.00 | 0.00 | 0.00 | 93 | 1018.4 |
| 20260506073519 | 47 | 0 | 0.0 | 1.7 | 0.00 | 0.00 | 0.00 | 92 | 1018.2 |
| 20260506073034 | 47 | 0 | 0.0 | 1.7 | 0.00 | 0.00 | 0.00 | 92 | 1018.2 |
| 20260506072520 | 47 | 0 | 0.0 | 1.7 | 0.00 | 0.00 | 0.00 | 93 | 1018.2 |
| 20260506072019 | 46 | 302 | 0.0 | 2.6 | 0.00 | 0.00 | 0.00 | 92 | 1018.1 |
| 20260506071541 | 46 | 0 | 0.9 | 2.6 | 0.00 | 0.00 | 0.00 | 91 | 1018.0 |
| 20260506071020 | 47 | 0 | 0.0 | 0.0 | 0.00 | 0.00 | 0.00 | 92 | 1018.0 |
| 20260506070520 | 47 | 0 | 0.0 | 0.0 | 0.00 | 0.00 | 0.00 | 92 | 1017.9 |
| 20260506062019 | 49 | 321 | 0.0 | 1.7 | 0.00 | 0.00 | 0.00 | 91 | 1017.4 |
| 20260506061544 | 49 | 281 | 0.0 | 1.7 | 0.00 | 0.00 | 0.00 | 90 | 1017.4 |
| 20260506061022 | 49 | 0 | 0.0 | 1.7 | 0.00 | 0.00 | 0.00 | 90 | 1017.3 |
| 20260506060521 | 49 | 0 | 0.0 | 3.5 | 0.00 | 0.00 | 0.00 | 90 | 1017.3 |
| 20260506051018 | 50 | 0 | 0.0 | 0.9 | 0.00 | 0.00 | 0.00 | 89 | 1016.9 |
| 20260506050518 | 50 | 0 | 0.0 | 2.6 | 0.00 | 0.00 | 0.00 | 88 | 1016.9 |
| 20260506045019 | 51 | 0 | 0.0 | 1.7 | 0.00 | 0.00 | 0.00 | 86 | 1016.6 |
| 20260506044540 | 52 | 0 | 0.0 | 1.7 | 0.00 | 0.00 | 0.00 | 85 | 1016.7 |
| 20260506044019 | 52 | 304 | 0.0 | 2.6 | 0.00 | 0.00 | 0.00 | 86 | 1016.6 |
| 20260506043518 | 52 | 0 | 0.0 | 2.6 | 0.00 | 0.00 | 0.00 | 85 | 1016.5 |
| 20260506043044 | 52 | 277 | 0.9 | 2.6 | 0.00 | 0.00 | 0.00 | 86 | 1016.5 |
| 20260506042521 | 52 | 277 | 0.9 | 2.6 | 0.00 | 0.00 | 0.00 | 84 | 1016.4 |
| 20260506042021 | 53 | 0 | 0.0 | 0.9 | 0.00 | 0.00 | 0.00 | 86 | 1016.3 |
| 20260506041535 | 52 | 0 | 0.0 | 0.0 | 0.00 | 0.00 | 0.00 | 85 | 1016.3 |
| 20260506041020 | 53 | 0 | 0.0 | 0.9 | 0.00 | 0.00 | 0.00 | 85 | 1016.2 |
| 20260506040518 | 53 | 0 | 0.0 | 0.9 | 0.00 | 0.00 | 0.00 | 84 | 1016.2 |
| 20260506040046 | 53 | 277 | 0.0 | 0.9 | 0.00 | 0.00 | 0.00 | 84 | 1016.1 |
| 20260506035518 | 53 | 0 | 0.0 | 0.9 | 0.00 | 0.00 | 0.00 | 83 | 1016.1 |
| 20260506035019 | 53 | 0 | 0.0 | 0.9 | 0.00 | 0.00 | 0.00 | 83 | 1016.0 |
| 20260506034541 | 53 | 0 | 0.0 | 0.9 | 0.00 | 0.00 | 0.00 | 82 | 1015.9 |
| 20260506034019 | 54 | 0 | 0.0 | 3.5 | 0.00 | 0.00 | 0.00 | 82 | 1015.8 |
| 20260506033521 | 54 | 0 | 0.9 | 4.3 | 0.00 | 0.00 | 0.00 | 81 | 1015.7 |
| 20260506033040 | 55 | 277 | 1.7 | 4.3 | 0.00 | 0.00 | 0.00 | 81 | 1015.7 |
| 20260506032517 | 55 | 228 | 1.7 | 4.3 | 0.00 | 0.00 | 0.00 | 81 | 1015.7 |
| 20260506032019 | 55 | 0 | 0.0 | 5.2 | 0.00 | 0.00 | 0.00 | 81 | 1015.5 |
| 20260506031542 | 55 | 273 | 0.9 | 5.2 | 0.00 | 0.00 | 0.00 | 80 | 1015.4 |
| 20260506031017 | 55 | 272 | 1.7 | 5.2 | 0.00 | 0.00 | 0.00 | 80 | 1015.2 |
| 20260506030521 | 55 | 273 | 1.7 | 5.2 | 0.00 | 0.00 | 0.00 | 79 | 1015.1 |
| 20260506030036 | 56 | 254 | 1.7 | 5.2 | 0.00 | 0.00 | 0.00 | 78 | 1015.0 |
| 20260506025520 | 56 | 229 | 2.6 | 7.8 | 0.00 | 0.00 | 0.00 | 77 | 1014.9 |
| 20260506025021 | 57 | 272 | 2.6 | 7.8 | 0.00 | 0.00 | 0.00 | 76 | 1014.8 |
| 20260506024537 | 57 | 256 | 4.3 | 7.8 | 0.00 | 0.00 | 0.00 | 75 | 1014.8 |
| 20260506024018 | 57 | 271 | 3.5 | 7.8 | 0.00 | 0.00 | 0.00 | 73 | 1014.7 |
| 20260506023520 | 58 | 279 | 3.5 | 7.0 | 0.00 | 0.00 | 0.00 | 72 | 1014.7 |
| 20260506023100 | 58 | 270 | 3.5 | 8.7 | 0.00 | 0.00 | 0.00 | 71 | 1014.7 |
| 20260506022519 | 59 | 234 | 4.3 | 8.7 | 0.00 | 0.00 | 0.00 | 70 | 1014.7 |
| 20260506022026 | 59 | 240 | 3.5 | 7.8 | 0.00 | 0.00 | 0.00 | 69 | 1014.6 |
| 20260506021601 | 59 | 254 | 4.3 | 9.6 | 0.00 | 0.00 | 0.00 | 69 | 1014.5 |
| 20260506021023 | 60 | 277 | 3.5 | 9.6 | 0.00 | 0.00 | 0.00 | 68 | 1014.5 |
| 20260506020517 | 60 | 270 | 4.3 | 7.8 | 0.00 | 0.00 | 0.00 | 69 | 1014.4 |
| 20260506020034 | 60 | 260 | 3.5 | 9.6 | 0.00 | 0.00 | 0.00 | 69 | 1014.4 |
| 20260506015523 | 60 | 264 | 4.3 | 9.6 | 0.00 | 0.00 | 0.00 | 69 | 1014.4 |
| 20260506015018 | 60 | 215 | 5.2 | 11.3 | 0.00 | 0.00 | 0.00 | 68 | 1014.5 |
| 20260506014541 | 61 | 252 | 6.1 | 11.3 | 0.00 | 0.00 | 0.00 | 68 | 1014.5 |
| 20260506014020 | 61 | 261 | 4.3 | 13.0 | 0.00 | 0.00 | 0.00 | 69 | 1014.5 |
| 20260506013520 | 61 | 257 | 5.2 | 13.0 | 0.00 | 0.00 | 0.00 | 70 | 1014.4 |
| 20260506013044 | 61 | 217 | 5.2 | 11.3 | 0.00 | 0.00 | 0.00 | 69 | 1014.5 |
| 20260506012519 | 61 | 281 | 4.3 | 11.3 | 0.00 | 0.00 | 0.00 | 69 | 1014.4 |
| 20260506012020 | 61 | 227 | 6.1 | 11.3 | 0.00 | 0.00 | 0.00 | 68 | 1014.5 |
| 20260506011537 | 61 | 236 | 5.2 | 10.4 | 0.00 | 0.00 | 0.00 | 69 | 1014.4 |
| 20260506011021 | 61 | 242 | 4.3 | 9.6 | 0.00 | 0.00 | 0.00 | 68 | 1014.5 |
| 20260506010519 | 61 | 256 | 5.2 | 11.3 | 0.00 | 0.00 | 0.00 | 68 | 1014.5 |
| 20260506010036 | 61 | 245 | 5.2 | 11.3 | 0.00 | 0.00 | 0.00 | 69 | 1014.5 |
| 20260506005521 | 61 | 227 | 5.2 | 10.4 | 0.00 | 0.00 | 0.00 | 68 | 1014.4 |
| 20260506005025 | 61 | 275 | 5.2 | 10.4 | 0.00 | 0.00 | 0.00 | 67 | 1014.5 |
| 20260506004535 | 61 | 259 | 4.3 | 11.3 | 0.00 | 0.00 | 0.00 | 68 | 1014.5 |
| 20260506004021 | 61 | 220 | 6.1 | 11.3 | 0.00 | 0.00 | 0.00 | 67 | 1014.4 |
| 20260506003520 | 61 | 241 | 6.1 | 12.2 | 0.00 | 0.00 | 0.00 | 67 | 1014.4 |
| 20260506003041 | 61 | 265 | 5.2 | 12.2 | 0.00 | 0.00 | 0.00 | 68 | 1014.3 |
| 20260506002520 | 61 | 236 | 6.1 | 12.2 | 0.00 | 0.00 | 0.00 | 67 | 1014.4 |
| 20260506002024 | 62 | 259 | 6.1 | 11.3 | 0.00 | 0.00 | 0.00 | 67 | 1014.4 |
| 20260506001541 | 62 | 229 | 4.3 | 10.4 | 0.00 | 0.00 | 0.00 | 68 | 1014.4 |
| 20260506001020 | 62 | 270 | 4.3 | 11.3 | 0.00 | 0.00 | 0.00 | 67 | 1014.3 |
| 20260506000523 | 62 | 212 | 6.1 | 11.3 | 0.00 | 0.00 | 0.00 | 68 | 1014.3 |
| 20260506000040 | 63 | 260 | 5.2 | 11.3 | 0.00 | 0.00 | 0.00 | 67 | 1014.3 |
| 20260505235523 | 63 | 252 | 5.2 | 10.4 | 0.00 | 0.00 | 0.00 | 66 | 1014.3 |
| 20260505235023 | 63 | 240 | 4.3 | 11.3 | 0.00 | 0.00 | 0.00 | 67 | 1014.2 |
| 20260505234536 | 64 | 274 | 5.2 | 11.3 | 0.00 | 0.00 | 0.00 | 66 | 1014.1 |
| 20260505234022 | 64 | 227 | 5.2 | 10.4 | 0.00 | 0.00 | 0.00 | 65 | 1014.2 |
| 20260505233523 | 64 | 265 | 5.2 | 10.4 | 0.00 | 0.00 | 0.00 | 63 | 1014.2 |
| 20260505233040 | 64 | 217 | 4.3 | 10.4 | 0.00 | 0.00 | 0.00 | 64 | 1014.2 |
| 20260505232522 | 65 | 222 | 2.6 | 13.0 | 0.00 | 0.00 | 0.00 | 62 | 1014.2 |
| 20260505232026 | 65 | 244 | 5.2 | 13.0 | 0.00 | 0.00 | 0.00 | 62 | 1014.3 |
| 20260505231556 | 66 | 215 | 4.3 | 11.3 | 0.00 | 0.00 | 0.00 | 62 | 1014.2 |
| 20260505231025 | 65 | 163 | 5.2 | 8.7 | 0.00 | 0.00 | 0.00 | 60 | 1014.2 |
| 20260505230524 | 66 | 271 | 2.6 | 7.8 | 0.00 | 0.00 | 0.00 | 62 | 1014.2 |
| 20260505230041 | 65 | 272 | 3.5 | 7.8 | 0.00 | 0.00 | 0.00 | 61 | 1014.2 |
| 20260505225522 | 64 | 238 | 2.6 | 7.0 | 0.00 | 0.00 | 0.00 | 62 | 1014.3 |
| 20260505225022 | 64 | 209 | 2.6 | 10.4 | 0.00 | 0.00 | 0.00 | 64 | 1014.4 |
| 20260505224543 | 65 | 236 | 6.1 | 11.3 | 0.00 | 0.00 | 0.00 | 62 | 1014.5 |
| 20260505224020 | 66 | 185 | 5.2 | 11.3 | 0.00 | 0.00 | 0.00 | 65 | 1014.4 |
| 20260505223520 | 63 | 192 | 3.5 | 8.7 | 0.00 | 0.00 | 0.00 | 64 | 1014.5 |
| 20260505223044 | 64 | 240 | 4.3 | 8.7 | 0.00 | 0.00 | 0.00 | 64 | 1014.6 |
| 20260505222521 | 63 | 213 | 4.3 | 8.7 | 0.00 | 0.00 | 0.00 | 65 | 1014.6 |
| 20260505222025 | 63 | 217 | 5.2 | 8.7 | 0.00 | 0.00 | 0.00 | 65 | 1014.7 |
| 20260505221542 | 64 | 230 | 4.3 | 8.7 | 0.00 | 0.00 | 0.00 | 62 | 1014.7 |
| 20260505221022 | 64 | 254 | 4.3 | 8.7 | 0.00 | 0.00 | 0.00 | 62 | 1014.7 |
| 20260505220526 | 64 | 222 | 3.5 | 8.7 | 0.00 | 0.00 | 0.00 | 62 | 1014.9 |
| 20260505220042 | 64 | 272 | 2.6 | 8.7 | 0.00 | 0.00 | 0.00 | 64 | 1014.8 |
| 20260505215523 | 64 | 196 | 2.6 | 8.7 | 0.00 | 0.00 | 0.00 | 63 | 1014.8 |
| 20260505215020 | 64 | 212 | 3.5 | 8.7 | 0.00 | 0.00 | 0.00 | 63 | 1014.9 |
| 20260505214555 | 64 | 246 | 3.5 | 9.6 | 0.00 | 0.00 | 0.00 | 61 | 1015.0 |
| 20260505214021 | 64 | 278 | 3.5 | 10.4 | 0.00 | 0.00 | 0.00 | 63 | 1015.0 |
| 20260505213521 | 64 | 274 | 4.3 | 10.4 | 0.00 | 0.00 | 0.00 | 64 | 1015.0 |
| 20260505213044 | 63 | 215 | 6.1 | 11.3 | 0.00 | 0.00 | 0.00 | 65 | 1015.1 |
| 20260505212520 | 62 | 217 | 5.2 | 11.3 | 0.00 | 0.00 | 0.00 | 65 | 1015.2 |
| 20260505212023 | 63 | 223 | 4.3 | 9.6 | 0.00 | 0.00 | 0.00 | 65 | 1015.2 |
| 20260505211539 | 63 | 252 | 4.3 | 9.6 | 0.00 | 0.00 | 0.00 | 68 | 1015.2 |
| 20260505211021 | 63 | 259 | 3.5 | 9.6 | 0.00 | 0.00 | 0.00 | 66 | 1015.3 |
| 20260505210557 | 62 | 275 | 5.2 | 10.4 | 0.00 | 0.00 | 0.00 | 67 | 1015.3 |
| 20260505210043 | 62 | 274 | 4.3 | 10.4 | 0.00 | 0.00 | 0.00 | 67 | 1015.3 |
| 20260505205525 | 62 | 229 | 3.5 | 9.6 | 0.00 | 0.00 | 0.00 | 68 | 1015.2 |
| 20260505205022 | 61 | 229 | 6.1 | 10.4 | 0.00 | 0.00 | 0.00 | 68 | 1015.2 |
| 20260505204540 | 61 | 219 | 6.1 | 10.4 | 0.00 | 0.00 | 0.00 | 67 | 1015.3 |
| 20260505204022 | 62 | 207 | 2.6 | 7.8 | 0.00 | 0.00 | 0.00 | 68 | 1015.2 |
| 20260505203520 | 62 | 165 | 3.5 | 7.8 | 0.00 | 0.00 | 0.00 | 67 | 1015.2 |
| 20260505203054 | 62 | 240 | 3.5 | 10.4 | 0.00 | 0.00 | 0.00 | 67 | 1015.2 |
| 20260505202520 | 62 | 236 | 5.2 | 10.4 | 0.00 | 0.00 | 0.00 | 67 | 1015.2 |
| 20260505202019 | 62 | 250 | 4.3 | 8.7 | 0.00 | 0.00 | 0.00 | 68 | 1015.2 |